{"data":{"norad_id":48328,"epoch":"2026-09-19T18:39:49.894848Z","epoch_age_seconds":96056,"freshness":"FRESH","line1":"1 48328U 21036BE  26262.77766082 -.00000443  00000+0 -25118-5 0  9992","line2":"2 48328  53.1589 277.7365 0001285  88.5596 271.5553 15.31695436297775","mean_motion":15.31695436,"eccentricity":0.0001285,"inclination_deg":53.1589,"raan_deg":277.7365,"arg_perigee_deg":88.5596,"mean_anomaly_deg":271.5553,"bstar":-2.5118e-6,"rev_number":29777,"period_min":94.013468092622,"perigee_km":469.8735178638,"apogee_km":471.63368274808,"semimajor_km":6848.8906003059,"source":"CELESTRAK","updated_at":"2026-09-20T09:00:38.937268Z"}}